Land O' Lakes, WI

5:51 AM CST on February 06, 2016 (GMT -0600)
Kings Land O'Lakes

Weather History for KLNL - March, 2013

Change the Weather History Date:

Thursday, March 7, 2013

  Actual Average (KEGV) Record (KEGV)
Temperature  
Mean Temperature 19 °F -  
Max Temperature 30 °F 38 °F 50 °F (2012)
Min Temperature 8 °F 11 °F -18 °F (2008)
Degree Days  
Heating Degree Days 46    
Moisture  
Dew Point 12 °F    
Average Humidity 78    
Maximum Humidity 100    
Minimum Humidity 51    
Precipitation  
Precipitation 0.00 in - - ()
Sea Level Pressure  
Sea Level Pressure 30.32 in    
Wind  
Wind Speed 1 mph (NE)    
Max Wind Speed 7 mph    
Max Gust Speed -    
Visibility 9 miles    
Events Snow    
Averages and records for this station are not official NWS values.
T = Trace of Precipitation, MM = Missing Value Source: NWS Daily Summary

Daily Weather History Graph

Daily Weather History Graph

Search for Another Location

Airport or City:

Trip Planner

Search our weather history database for the weather conditions in past years. The results will help you decide how hot, cold, wet, or windy it might be!

Date:

Astronomy

Mar. 07, 2013 Rise Set
Actual Time 6:24 AM CST 5:52 PM CST
Civil Twilight 5:54 AM CST 6:21 PM CST
Nautical Twilight 5:19 AM CST 6:56 PM CST
Astronomical Twilight 4:44 AM CST 7:31 PM CST
Moon 3:36 AM CST (3/7) 1:28 PM CST (3/7)
Length of Visible Light 12h 27m
Length of Day
11h 27m
Waning Crescent, 20% of the Moon is Illuminated
Mar 7
Waning Crescent
Mar 11
New
Mar 19
First Quarter
Mar 27
Full
Apr 2
Last Quarter

Hourly Weather History & Observations

Time (CST) Temp. Windchill Dew Point Humidity Pressure Visibility Wind Dir Wind Speed Gust Speed Precip Events Conditions
12:15 AM 8.6 °F - 6.8 °F 92% 30.25 in 5.0 mi Calm Calm - N/A Snow Light Snow
12:35 AM 10.4 °F - 6.8 °F 85% 30.26 in 5.0 mi Calm Calm - N/A Snow Light Snow
12:55 AM 10.4 °F - 6.8 °F 85% 30.26 in 7.0 mi Calm Calm - N/A Snow Light Snow
1:15 AM 10.4 °F - 6.8 °F 85% 30.26 in 7.0 mi Calm Calm - N/A Snow Light Snow
1:35 AM 10.4 °F - 6.8 °F 85% 30.27 in 10.0 mi Calm Calm - N/A Snow Light Snow
1:55 AM 10.4 °F - 8.6 °F 92% 30.27 in 10.0 mi Calm Calm - N/A Snow Light Snow
2:15 AM 10.4 °F - 8.6 °F 92% 30.27 in 10.0 mi Calm Calm - N/A Snow Light Snow
2:35 AM 12.2 °F - 10.4 °F 92% 30.28 in 5.0 mi Calm Calm - N/A Snow Light Snow
2:55 AM 14.0 °F - 10.4 °F 86% 30.28 in 7.0 mi Calm Calm - N/A Snow Light Snow
3:15 AM 14.0 °F - 12.2 °F 93% 30.27 in 5.0 mi Calm Calm - N/A Snow Light Snow
3:35 AM 14.0 °F - 14.0 °F 100% 30.27 in 7.0 mi Calm Calm - N/A Snow Light Snow
3:55 AM 15.8 °F - 12.2 °F 86% 30.28 in 7.0 mi Calm Calm - N/A Snow Light Snow
4:15 AM 14.0 °F - 12.2 °F 93% 30.29 in 5.0 mi Calm Calm - N/A Snow Light Snow
4:35 AM 14.0 °F - 12.2 °F 93% 30.28 in 7.0 mi Calm Calm - N/A Snow Light Snow
4:55 AM 14.0 °F - 12.2 °F 93% 30.29 in 5.0 mi Calm Calm - N/A Snow Light Snow
5:15 AM 15.8 °F - 14.0 °F 93% 30.30 in 5.0 mi Calm Calm - N/A Snow Light Snow
5:35 AM 15.8 °F - 14.0 °F 93% 30.30 in 5.0 mi Calm Calm - N/A Snow Light Snow
5:55 AM 15.8 °F - 14.0 °F 93% 30.31 in 7.0 mi Calm Calm - N/A Snow Light Snow
6:15 AM 15.8 °F - 14.0 °F 93% 30.31 in 7.0 mi Calm Calm - N/A Snow Light Snow
6:35 AM 15.8 °F - 14.0 °F 93% 30.32 in 7.0 mi Calm Calm - N/A Snow Light Snow
6:55 AM 17.6 °F - 14.0 °F 86% 30.32 in 7.0 mi Calm Calm - N/A Snow Light Snow
7:15 AM 17.6 °F - 14.0 °F 86% 30.32 in 3.0 mi Calm Calm - N/A Snow Light Snow
7:35 AM 17.6 °F - 15.8 °F 93% 30.32 in 4.0 mi Calm Calm - N/A Snow Light Snow
7:55 AM 19.4 °F - 17.6 °F 93% 30.32 in 7.0 mi Calm Calm - N/A Snow Light Snow
8:15 AM 19.4 °F 12.8 °F 17.6 °F 93% 30.32 in 10.0 mi North 4.6 mph - N/A Snow Light Snow
8:35 AM 21.2 °F 12.6 °F 15.8 °F 80% 30.32 in 10.0 mi North 6.9 mph - N/A Snow Light Snow
8:55 AM 21.2 °F 14.9 °F 14.0 °F 74% 30.33 in 10.0 mi NNE 4.6 mph - N/A Snow Light Snow
9:15 AM 21.2 °F 12.6 °F 14.0 °F 74% 30.33 in 10.0 mi NNW 6.9 mph - N/A   Overcast
9:35 AM 21.2 °F 12.6 °F 14.0 °F 74% 30.33 in 10.0 mi NNE 6.9 mph - N/A Snow Light Snow
9:55 AM 21.2 °F 12.6 °F 14.0 °F 74% 30.34 in 10.0 mi North 6.9 mph - N/A   Overcast
10:15 AM 21.2 °F - 14.0 °F 74% 30.34 in 7.0 mi Calm Calm - N/A Snow Light Snow
10:35 AM 21.2 °F 16.4 °F 14.0 °F 74% 30.34 in 10.0 mi North 3.5 mph - N/A Snow Light Snow
10:55 AM 21.2 °F 16.4 °F 14.0 °F 74% 30.35 in 10.0 mi NNE 3.5 mph - N/A Snow Light Snow
11:15 AM 23.0 °F 18.4 °F 14.0 °F 68% 30.35 in 10.0 mi North 3.5 mph - N/A   Overcast
11:35 AM 23.0 °F - 14.0 °F 68% 30.35 in 10.0 mi Calm Calm - N/A   Overcast
11:55 AM 23.0 °F - 14.0 °F 68% 30.35 in 10.0 mi Calm Calm - N/A   Overcast
12:15 PM 24.8 °F 20.5 °F 14.0 °F 64% 30.35 in 10.0 mi NE 3.5 mph - N/A   Overcast
12:35 PM 26.6 °F - 14.0 °F 59% 30.34 in 10.0 mi Calm Calm - N/A   Overcast
12:55 PM 26.6 °F - 14.0 °F 59% 30.33 in 10.0 mi Calm Calm - N/A   Mostly Cloudy
1:15 PM 28.4 °F - 14.0 °F 55% 30.33 in 10.0 mi Calm Calm - N/A   Scattered Clouds
1:35 PM 28.4 °F 24.6 °F 14.0 °F 55% 30.32 in 10.0 mi NNE 3.5 mph - N/A   Clear
1:55 PM 28.4 °F - 14.0 °F 55% 30.32 in 10.0 mi Calm Calm - N/A   Clear
2:15 PM 28.4 °F - 14.0 °F 55% 30.32 in 10.0 mi Calm Calm - N/A   Clear
2:35 PM 30.2 °F - 14.0 °F 51% 30.32 in 10.0 mi Calm Calm - N/A   Clear
2:55 PM 30.2 °F - 14.0 °F 51% 30.32 in 10.0 mi Calm Calm - N/A   Clear
3:15 PM 30.2 °F - 15.8 °F 55% 30.32 in 10.0 mi Calm Calm - N/A   Clear
3:35 PM 30.2 °F - 14.0 °F 51% 30.32 in 10.0 mi Calm Calm - N/A   Clear
3:55 PM 30.2 °F - 14.0 °F 51% 30.32 in 10.0 mi Calm Calm - N/A   Clear
4:15 PM 30.2 °F - 14.0 °F 51% 30.32 in 10.0 mi Calm Calm - N/A   Clear
4:35 PM 30.2 °F - 14.0 °F 51% 30.32 in 10.0 mi Calm Calm - N/A   Clear
4:55 PM 30.2 °F 26.7 °F 14.0 °F 51% 30.32 in 10.0 mi East 3.5 mph - N/A   Clear
5:15 PM 30.2 °F - 14.0 °F 51% 30.32 in 10.0 mi Calm Calm - N/A   Clear
5:35 PM 30.2 °F - 14.0 °F 51% 30.32 in 10.0 mi Calm Calm - N/A   Clear
5:55 PM 28.4 °F - 14.0 °F 55% 30.32 in 10.0 mi Calm Calm - N/A   Clear
7:35 PM 15.8 °F - 12.2 °F 86% 30.34 in 10.0 mi Calm Calm - N/A   Clear
7:55 PM 14.0 °F - 10.4 °F 86% 30.34 in 10.0 mi Calm Calm - N/A   Clear
8:15 PM 14.0 °F - 12.2 °F 93% 30.34 in 10.0 mi Calm Calm - N/A   Clear
8:35 PM 12.2 °F - 10.4 °F 92% 30.35 in 10.0 mi Calm Calm - N/A   Clear
8:55 PM 12.2 °F - 10.4 °F 92% 30.34 in 10.0 mi Calm Calm - N/A   Clear
9:15 PM 12.2 °F - 8.6 °F 85% 30.34 in 10.0 mi Calm Calm - N/A   Clear
9:35 PM 10.4 °F - 8.6 °F 92% 30.34 in 10.0 mi Calm Calm - N/A   Clear
9:55 PM 10.4 °F - 8.6 °F 92% 30.34 in 10.0 mi Calm Calm - N/A   Clear
10:15 PM 10.4 °F - 8.6 °F 92% 30.34 in 10.0 mi Calm Calm - N/A   Clear
10:35 PM 8.6 °F 2.0 °F 5.0 °F 85% 30.34 in 10.0 mi SE 3.5 mph - N/A   Clear
10:55 PM 10.4 °F 4.0 °F 6.8 °F 85% 30.35 in 10.0 mi SE 3.5 mph - N/A   Clear
11:15 PM 8.6 °F - 5.0 °F 85% 30.35 in 10.0 mi Calm Calm - N/A   Clear
11:35 PM 8.6 °F 2.0 °F 5.0 °F 85% 30.35 in 10.0 mi SSE 3.5 mph - N/A   Clear
11:55 PM 8.6 °F - 5.0 °F 85% 30.35 in 10.0 mi Calm Calm - N/A   Clear